| time (UTC) | temp F | wind direction | speed knots | gust knots | rain 1hr in | rain 24hr in | rain mn in | humidity % | barometer mb |
| 20260505124545 | 53 | 0 | 0.0 | 0.9 | 0.00 | 0.00 | 0.00 | 89 | 1015.4 |
| 20260505123051 | 53 | 0 | 0.0 | 0.9 | 0.00 | 0.00 | 0.00 | 89 | 1015.3 |
| 20260505121606 | 53 | 181 | 0.0 | 0.9 | 0.00 | 0.00 | 0.00 | 90 | 1015.4 |
| 20260505120047 | 53 | 0 | 0.0 | 0.9 | 0.00 | 0.00 | 0.00 | 89 | 1015.4 |
| 20260505114544 | 53 | 0 | 0.0 | 1.7 | 0.00 | 0.00 | 0.00 | 90 | 1015.3 |
| 20260505113045 | 53 | 189 | 0.0 | 0.9 | 0.00 | 0.00 | 0.00 | 90 | 1015.4 |
| 20260505111545 | 53 | 188 | 0.0 | 3.5 | 0.00 | 0.00 | 0.00 | 91 | 1015.2 |
| 20260505101553 | 51 | 0 | 0.0 | 0.0 | 0.00 | 0.00 | 0.00 | 93 | 1015.0 |
| 20260505100043 | 51 | 0 | 0.0 | 0.9 | 0.00 | 0.00 | 0.00 | 93 | 1014.8 |
| 20260505094549 | 50 | 0 | 0.0 | 0.9 | 0.00 | 0.00 | 0.00 | 93 | 1014.9 |
| 20260505093048 | 50 | 0 | 0.0 | 0.9 | 0.00 | 0.00 | 0.00 | 93 | 1014.7 |
| 20260505091544 | 50 | 0 | 0.0 | 0.9 | 0.00 | 0.00 | 0.00 | 93 | 1014.8 |
| 20260505090057 | 50 | 0 | 0.0 | 1.7 | 0.00 | 0.00 | 0.00 | 92 | 1014.6 |
| 20260505084549 | 50 | 211 | 0.0 | 0.9 | 0.00 | 0.00 | 0.00 | 92 | 1014.7 |
| 20260505083056 | 50 | 0 | 0.0 | 0.9 | 0.00 | 0.00 | 0.00 | 92 | 1014.6 |
| 20260505081545 | 50 | 198 | 0.0 | 0.9 | 0.00 | 0.00 | 0.00 | 91 | 1014.5 |
| 20260505080047 | 51 | 0 | 0.0 | 0.9 | 0.00 | 0.00 | 0.00 | 90 | 1014.5 |
| 20260505074544 | 52 | 0 | 0.0 | 0.9 | 0.00 | 0.00 | 0.00 | 90 | 1014.4 |
| 20260505073048 | 52 | 223 | 0.0 | 2.6 | 0.00 | 0.00 | 0.00 | 90 | 1014.2 |
| 20260505071547 | 52 | 0 | 0.0 | 4.3 | 0.00 | 0.00 | 0.00 | 90 | 1014.2 |
| 20260505070049 | 52 | 240 | 0.0 | 3.5 | 0.00 | 0.00 | 0.00 | 89 | 1014.1 |
| 20260505064546 | 52 | 219 | 0.0 | 1.7 | 0.00 | 0.00 | 0.00 | 89 | 1013.9 |
| 20260505063044 | 52 | 0 | 0.0 | 5.2 | 0.00 | 0.00 | 0.00 | 88 | 1013.9 |
| 20260505061557 | 53 | 209 | 0.0 | 0.9 | 0.00 | 0.00 | 0.00 | 87 | 1013.8 |
| 20260505060050 | 54 | 242 | 0.0 | 2.6 | 0.00 | 0.00 | 0.00 | 86 | 1013.8 |
| 20260505054548 | 54 | 229 | 0.0 | 3.5 | 0.00 | 0.00 | 0.00 | 85 | 1013.8 |
| 20260505053049 | 54 | 225 | 0.9 | 3.5 | 0.00 | 0.00 | 0.00 | 85 | 1013.2 |
| 20260505051546 | 55 | 0 | 0.0 | 1.7 | 0.00 | 0.00 | 0.00 | 84 | 1013.3 |
| 20260505041543 | 56 | 0 | 0.0 | 1.7 | 0.00 | 0.00 | 0.00 | 81 | 1012.7 |
| 20260505040050 | 57 | 0 | 0.0 | 0.9 | 0.00 | 0.00 | 0.00 | 79 | 1012.5 |
| 20260505034546 | 58 | 0 | 0.0 | 2.6 | 0.00 | 0.00 | 0.00 | 78 | 1012.3 |
| 20260505033104 | 59 | 258 | 0.0 | 4.3 | 0.00 | 0.00 | 0.00 | 76 | 1012.1 |
| 20260505031544 | 61 | 256 | 0.9 | 4.3 | 0.00 | 0.00 | 0.00 | 74 | 1011.9 |
| 20260505030045 | 62 | 224 | 1.7 | 8.7 | 0.00 | 0.00 | 0.00 | 72 | 1011.8 |
| 20260505024544 | 64 | 264 | 1.7 | 8.7 | 0.00 | 0.00 | 0.00 | 70 | 1011.8 |
| 20260505023058 | 65 | 333 | 3.5 | 11.3 | 0.00 | 0.00 | 0.00 | 67 | 1011.6 |
| 20260505021546 | 67 | 246 | 1.7 | 7.0 | 0.00 | 0.00 | 0.00 | 67 | 1011.5 |
| 20260505020049 | 69 | 300 | 0.9 | 6.1 | 0.00 | 0.00 | 0.00 | 66 | 1011.5 |
| 20260505014544 | 70 | 279 | 0.0 | 7.8 | 0.00 | 0.00 | 0.00 | 66 | 1011.5 |
| 20260505013045 | 71 | 296 | 0.9 | 5.2 | 0.00 | 0.00 | 0.00 | 64 | 1011.6 |
| 20260505011551 | 71 | 292 | 2.6 | 7.0 | 0.00 | 0.00 | 0.00 | 64 | 1011.5 |
| 20260505010045 | 72 | 0 | 5.2 | 10.4 | 0.00 | 0.00 | 0.00 | 63 | 1011.6 |
| 20260505004550 | 73 | 269 | 3.5 | 8.7 | 0.00 | 0.00 | 0.00 | 63 | 1011.6 |
| 20260505003047 | 74 | 206 | 2.6 | 7.0 | 0.00 | 0.00 | 0.00 | 62 | 1011.5 |
| 20260505001547 | 75 | 275 | 0.9 | 7.0 | 0.00 | 0.00 | 0.00 | 62 | 1011.4 |
| 20260505000048 | 74 | 0 | 1.7 | 7.8 | 0.00 | 0.00 | 0.00 | 63 | 1011.8 |
| 20260504234612 | 74 | 159 | 2.6 | 7.8 | 0.00 | 0.00 | 0.00 | 61 | 1011.9 |
| 20260504233048 | 74 | 173 | 1.7 | 6.1 | 0.00 | 0.00 | 0.00 | 63 | 1012.0 |
| 20260504231554 | 73 | 165 | 3.5 | 7.8 | 0.00 | 0.00 | 0.00 | 62 | 1012.1 |
| 20260504230046 | 73 | 160 | 3.5 | 7.8 | 0.00 | 0.00 | 0.00 | 61 | 1012.3 |
| 20260504224543 | 73 | 249 | 2.6 | 7.0 | 0.00 | 0.00 | 0.00 | 62 | 1012.3 |
| 20260504223046 | 73 | 215 | 1.7 | 7.8 | 0.00 | 0.00 | 0.00 | 64 | 1012.4 |
| 20260504221604 | 72 | 128 | 1.7 | 7.8 | 0.00 | 0.00 | 0.00 | 64 | 1012.5 |
| 20260504220043 | 71 | 189 | 5.2 | 8.7 | 0.00 | 0.00 | 0.00 | 63 | 1012.6 |
| 20260504214550 | 71 | 213 | 3.5 | 7.8 | 0.00 | 0.00 | 0.00 | 63 | 1012.8 |
| 20260504213051 | 70 | 210 | 6.1 | 8.7 | 0.00 | 0.00 | 0.00 | 65 | 1013.0 |
| 20260504211546 | 70 | 226 | 2.6 | 9.6 | 0.00 | 0.00 | 0.00 | 66 | 1013.1 |
| 20260504210056 | 69 | 186 | 2.6 | 7.0 | 0.00 | 0.00 | 0.00 | 65 | 1013.3 |
| 20260504204619 | 68 | 103 | 2.6 | 8.7 | 0.00 | 0.00 | 0.00 | 67 | 1013.5 |
| 20260504203050 | 68 | 119 | 1.7 | 7.0 | 0.00 | 0.00 | 0.00 | 67 | 1013.6 |
| 20260504201543 | 66 | 186 | 2.6 | 7.0 | 0.00 | 0.00 | 0.00 | 68 | 1013.6 |
| 20260504200053 | 66 | 170 | 3.5 | 7.8 | 0.00 | 0.00 | 0.00 | 69 | 1013.8 |
| 20260504194554 | 66 | 129 | 2.6 | 7.0 | 0.00 | 0.00 | 0.00 | 70 | 1013.6 |
| 20260504193046 | 65 | 229 | 1.7 | 7.8 | 0.00 | 0.00 | 0.00 | 70 | 1013.8 |
| 20260504191549 | 64 | 167 | 2.6 | 7.0 | 0.00 | 0.00 | 0.00 | 71 | 1014.2 |
| 20260504190055 | 64 | 226 | 1.7 | 6.1 | 0.00 | 0.00 | 0.00 | 72 | 1014.2 |
| 20260504184600 | 63 | 263 | 1.7 | 6.1 | 0.00 | 0.00 | 0.00 | 74 | 1014.2 |
| 20260504183053 | 62 | 217 | 1.7 | 5.2 | 0.00 | 0.00 | 0.00 | 75 | 1014.1 |
| 20260504181544 | 61 | 213 | 0.9 | 7.0 | 0.00 | 0.00 | 0.00 | 77 | 1014.2 |
| 20260504180043 | 60 | 135 | 3.5 | 7.0 | 0.00 | 0.00 | 0.00 | 78 | 1014.2 |
| 20260504174550 | 59 | 161 | 3.5 | 7.0 | 0.00 | 0.00 | 0.00 | 79 | 1014.3 |
| 20260504173045 | 59 | 252 | 3.5 | 7.8 | 0.00 | 0.00 | 0.00 | 80 | 1014.2 |
| 20260504171548 | 58 | 177 | 2.6 | 7.8 | 0.00 | 0.00 | 0.00 | 81 | 1014.1 |